This demonstration page uses our WeatherBlox Daily Observations layout. Learn more.

Left ArrowRight Arrow

39.51506, -84.39828

Hourly Observations for April 4, 2015

Temp ( °F °C ) Dew Point ( °F °C ) Humidity (%) Winds ( mph kmh ) Pressure ( in mb ) Visibility ( mi km ) Precip ( " mm )
12:15 am 00:15 Partly Cloudy 47 8.2 34 1.1 61 61 NW 9 15 30.06 1018 10 16.0934 N/A
12:35 am 00:35 Clear 44 6.8 33 0.3 64 64 NW 7 11 30.06 1018 10 16.0934 N/A
12:55 am 00:55 Clear 44 6.4 33 0.5 66 66 NW 7 11 30.09 1019 10 16.0934 N/A
1:15 am 01:15 Clear 43 6.1 33 0.4 67 67 NW 7 11 30.09 1019 10 16.0934 N/A
1:35 am 01:35 Clear 43 6 32 0.2 67 67 NW 10 17 30.12 1020 10 16.0934 N/A
1:55 am 01:55 Clear 42 5.5 32 undefined 68 68 NW 8 13 30.12 1020 10 16.0934 N/A
2:15 am 02:15 Clear 42 5.5 30 -1 63 63 NW 8 13 30.12 1020 10 16.0934 N/A
2:35 am 02:35 Clear 40 4.7 29 -1.4 65 65 NNW 13 20 30.15 1021 10 16.0934 N/A
2:55 am 02:55 Clear 39 4 28 -2 65 65 NW 17 28 30.18 1022 10 16.0934 N/A
3:15 am 03:15 Clear 39 4 27 -2.7 62 62 NW 14 22 30.21 1023 10 16.0934 N/A
3:35 am 03:35 Clear 38 3.4 26 -3.2 62 62 NNW 10 17 30.21 1023 10 16.0934 N/A
3:55 am 03:55 Clear 37 2.8 24 -4.2 60 60 NNW 9 15 30.21 1023 10 16.0934 N/A
4:15 am 04:15 Clear 37 2.6 24 -4.6 59 59 NNW 10 17 30.24 1024 10 16.0934 N/A
4:35 am 04:35 Clear 37 2.6 24 -4.2 61 61 NW 8 13 30.24 1024 10 16.0934 N/A
4:55 am 04:55 Clear 37 2.6 25 -4 62 62 NNW 9 15 30.27 1025 10 16.0934 N/A
5:15 am 05:15 Clear 37 2.6 25 -4 62 62 NW 8 13 30.27 1025 10 16.0934 N/A
5:35 am 05:35 Clear 37 2.6 26 -3.5 64 64 NW 9 15 30.27 1025 10 16.0934 N/A
5:55 am 05:55 Clear 37 2.6 26 -3.4 65 65 NNW 8 13 30.27 1025 10 16.0934 N/A
6:15 am 06:15 Clear 36 2 25 -3.8 66 66 NNW 7 11 30.3 1026 10 16.0934 N/A
6:35 am 06:35 Clear 34 1.3 24 -4.2 67 67 NNW 7 11 30.3 1026 10 16.0934 N/A
6:55 am 06:55 Clear 34 1.2 25 -4.1 68 68 NNW 6 9 30.3 1026 10 16.0934 N/A
7:15 am 07:15 Clear 34 1.2 24 -4.4 67 67 NNW 8 13 30.33 1027 10 16.0934 N/A
7:35 am 07:35 Sunny 34 1.2 24 -4.4 67 67 NNW 5 7 30.33 1027 10 16.0934 N/A
7:55 am 07:55 Sunny 34 1.2 24 -4.4 67 67 NNW 5 7 30.33 1027 10 16.0934 N/A
8:15 am 08:15 Sunny 36 2.2 24 -4.3 63 63 NNW 6 9 30.33 1027 10 16.0934 N/A
8:35 am 08:35 Sunny 37 2.6 24 -4.5 60 60 NW 8 13 30.36 1028 10 16.0934 N/A
8:55 am 08:55 Sunny 37 2.6 22 -5.6 55 55 NW 7 11 30.36 1028 10 16.0934 N/A
9:15 am 09:15 Sunny 39 4 23 -5 52 52 N 10 17 30.36 1028 10 16.0934 N/A
9:35 am 09:35 Sunny 39 4 22 -5.5 50 50 N 8 13 30.36 1028 10 16.0934 N/A
9:55 am 09:55 Sunny 39 4 20 -6.6 46 46 N 9 15 30.36 1028 10 16.0934 N/A
10:15 am 10:15 Sunny 39 4 20 -6.8 46 46 NW 8 13 30.36 1028 10 16.0934 N/A
10:35 am 10:35 Sunny 40 4.7 21 -6.3 45 45 N 8 13 30.39 1029 10 16.0934 N/A
10:55 am 10:55 Sunny 41 4.8 19 -7 42 42 NNW 3 6 30.39 1029 10 16.0934 N/A
11:15 am 11:15 Sunny 42 5.5 18 -7.8 38 38 W 7 11 30.39 1029 10 16.0934 N/A
11:35 am 11:35 Sunny 42 5.8 15 -9.2 33 33 NW 3 6 30.39 1029 10 16.0934 N/A
11:55 am 11:55 Sunny 43 6.1 14 -10 31 31 W 3 6 30.39 1029 10 16.0934 N/A
12:15 pm 12:15 Sunny 44 6.8 21 -6.1 40 40 SW 7 11 30.36 1028 10 16.0934 N/A
12:35 pm 12:35 Sunny 44 6.8 19 -7.3 36 36 N N/A 30.36 1028 10 16.0934 N/A
12:55 pm 12:55 Sunny 47 8.2 22 -5.4 38 38 WSW 5 7 30.36 1028 10 16.0934 N/A
1:15 pm 13:15 Sunny 49 9.6 26 -3.4 40 40 WSW 12 19 30.36 1028 10 16.0934 N/A
1:35 pm 13:35 Sunny 49 9.6 23 -4.9 36 36 W 5 7 30.36 1028 10 16.0934 N/A
1:55 pm 13:55 Sunny 49 9.6 21 -6.1 33 33 WNW 3 6 30.36 1028 10 16.0934 N/A
2:15 pm 14:15 Sunny 49 9.6 23 -5 36 36 WNW 9 15 30.33 1027 10 16.0934 N/A
2:35 pm 14:35 Sunny 50 10.1 24 -4.2 37 37 W 8 13 30.33 1027 10 16.0934 N/A
2:55 pm 14:55 Sunny 52 11 25 -3.9 35 35 WSW 14 22 30.33 1027 10 16.0934 N/A
3:15 pm 15:15 Sunny 54 12.4 24 -4.3 31 31 W 8 13 30.33 1027 10 16.0934 N/A
3:35 pm 15:35 Sunny 55 12.5 25 -3.8 32 32 SSW 10 17 30.3 1026 10 16.0934 N/A
3:55 pm 15:55 Sunny 55 12.5 25 -3.9 32 32 WSW 8 13 30.3 1026 10 16.0934 N/A
4:15 pm 16:15 Sunny 55 12.5 25 -3.9 32 32 W 14 22 30.3 1026 10 16.0934 N/A
4:35 pm 16:35 Sunny 55 12.5 24 -4.4 31 31 SSW 12 19 30.3 1026 10 16.0934 N/A
4:55 pm 16:55 Sunny 55 12.6 22 -5.3 29 29 W 10 17 30.3 1026 10 16.0934 N/A
5:15 pm 17:15 Sunny 55 12.5 24 -4.7 30 30 WSW 15 24 30.3 1026 10 16.0934 N/A
5:35 pm 17:35 Sunny 55 12.6 25 -3.9 32 32 WSW 14 22 30.3 1026 10 16.0934 N/A
5:55 pm 17:55 Sunny 55 12.5 23 -4.8 30 30 WSW 13 20 30.27 1025 10 16.0934 N/A
6:15 pm 18:15 Sunny 55 12.5 24 -4.5 31 31 WSW 15 24 30.27 1025 10 16.0934 N/A
6:35 pm 18:35 Sunny 55 12.5 25 -4 32 32 SW 15 24 30.27 1025 10 16.0934 N/A
6:55 pm 18:55 Sunny 55 12.5 24 -4.4 31 31 WSW 10 17 30.27 1025 10 16.0934 N/A
7:15 pm 19:15 Sunny 55 12.5 25 -4 32 32 WSW 12 19 30.27 1025 10 16.0934 N/A
7:35 pm 19:35 Sunny 55 12.5 26 -3.4 33 33 WSW 12 19 30.27 1025 10 16.0934 N/A
7:55 pm 19:55 Sunny 52 11 26 -3.2 37 37 WSW 8 13 30.27 1025 10 16.0934 N/A
8:15 pm 20:15 Clear 49 9.7 27 -2.7 42 42 WSW 7 11 30.27 1025 10 16.0934 N/A
8:35 pm 20:35 Clear 49 9.6 29 -1.9 45 45 SW 6 9 30.27 1025 10 16.0934 N/A
8:55 pm 20:55 Clear 49 9.6 28 -2 45 45 WSW 3 6 30.27 1025 10 16.0934 N/A
9:15 pm 21:15 Clear 49 9.5 31 -0.8 49 49 WSW 5 7 30.27 1025 10 16.0934 N/A
9:35 pm 21:35 Clear 46 7.7 33 0.4 60 60 SW 5 7 30.27 1025 10 16.0934 N/A
9:55 pm 21:55 Clear 44 6.4 31 -0.6 61 61 SW 6 9 30.33 1027 10 16.0934 N/A
10:15 pm 22:15 Clear 43 6.1 30 -0.9 61 61 SW 5 7 30.33 1027 10 16.0934 N/A
10:35 pm 22:35 Clear 44 6.6 33 0.3 64 64 SSW 5 7 30.3 1026 10 16.0934 N/A
10:55 pm 22:55 Clear 40 4.7 33 0.6 75 75 SW 5 7 30.33 1027 10 16.0934 N/A
11:15 pm 23:15 Clear 40 4.5 32 undefined 73 73 SW 5 7 30.33 1027 10 16.0934 N/A
11:35 pm 23:35 Clear 41 4.9 33 0.5 73 73 SW 5 7 30.33 1027 10 16.0934 N/A
11:55 pm 23:55 Clear 40 4.6 31 -0.3 71 71 SW 6 9 30.33 1027 10 16.0934 N/A

Powered by AerisWeather